Weather History for West Palm Beach, FL

Change the Weather History Date:

Wednesday, April 17, 2013

  Actual Average Record
Temperature  
Mean Temperature 78 °F 74 °F  
Max Temperature 82 °F 82 °F 93 °F (1908)
Min Temperature 74 °F 66 °F 45 °F (1913)
Degree Days  
Heating Degree Days 0 0  
Month to date heating degree days 0 0  
Since 1 July heating degree days 164 229  
Cooling Degree Days 13 9  
Month to date cooling degree days 193 137  
Year to date cooling degree days 664 565  
Growing Degree Days 28 (Base 50)    
Moisture  
Dew Point 65 °F    
Average Humidity 65    
Maximum Humidity 79    
Minimum Humidity 51    
Precipitation  
Precipitation 0.00 in 0.13 in 15.22 in (1942)
Month to date precipitation 3.31 2.22  
Year to date precipitation 7.47 12.76  
Snow  
Snow 0.00 in - - ()
Month to date snowfall 0.0  
Since 1 July snowfall 0.0  
Snow Depth 0.00 in    
Sea Level Pressure  
Sea Level Pressure 30.07 in    
Wind  
Wind Speed 9 mph (NE)    
Max Wind Speed 17 mph    
Max Gust Speed 22 mph    
Visibility 10 miles    
Events      
T = Trace of Precipitation, MM = Missing Value Source: NWS Daily Summary

Daily Weather History Graph

Daily Weather History Graph

Search for Another Location

Airport:

Trip Planner

Search our weather history database for the weather conditions in past years. The results will help you decide how hot, cold, wet, or windy it might be!

Date:

Astronomy

Apr. 17, 2013 Rise Set
Actual Time 6:54 AM EDT 7:45 PM EDT
Civil Twilight 6:30 AM EDT 8:09 PM EDT
Nautical Twilight 6:02 AM EDT 8:37 PM EDT
Astronomical Twilight 5:34 AM EDT 9:06 PM EDT
Moon 12:17 PM EDT (4/17) 1:10 AM EDT (4/17)
Length of Visible Light 13h 38m
Length of Day
12h 51m
Waxing Crescent, 42% of the Moon is Illuminated
Apr 17
Waxing Crescent
Apr 18
First Quarter
Apr 25
Full
May 2
Last Quarter
May 9
New

Hourly Weather History & Observations

Time (EDT) Temp. Heat Index Dew Point Humidity Pressure Visibility Wind Dir Wind Speed Gust Speed Precip Events Conditions
12:53 AM 75.9 °F - 66.9 °F 74% 30.11 in 10.0 mi ENE 9.2 mph - N/A   Partly Cloudy
1:53 AM 75.9 °F - 68.0 °F 76% 30.09 in 10.0 mi ENE 8.1 mph - N/A   Scattered Clouds
2:04 AM 75.2 °F - 68.0 °F 78% 30.09 in 10.0 mi ENE 8.1 mph - N/A   Mostly Cloudy
2:53 AM 75.9 °F - 66.9 °F 74% 30.07 in 10.0 mi NE 11.5 mph - N/A   Mostly Cloudy
3:22 AM 75.2 °F - 66.2 °F 73% 30.07 in 10.0 mi ENE 9.2 mph - N/A   Mostly Cloudy
3:42 AM 75.2 °F - 66.2 °F 73% 30.07 in 10.0 mi ENE 8.1 mph - N/A   Mostly Cloudy
3:53 AM 75.0 °F - 66.9 °F 76% 30.06 in 10.0 mi ENE 8.1 mph - N/A   Mostly Cloudy
4:04 AM 75.2 °F - 66.2 °F 73% 30.07 in 10.0 mi NE 10.4 mph - N/A   Scattered Clouds
4:53 AM 73.9 °F - 66.9 °F 79% 30.06 in 10.0 mi NE 5.8 mph - N/A   Scattered Clouds
5:53 AM 75.0 °F - 66.9 °F 76% 30.06 in 10.0 mi NE 5.8 mph - N/A   Scattered Clouds
6:53 AM 75.0 °F - 66.9 °F 76% 30.08 in 10.0 mi ENE 6.9 mph - N/A   Mostly Cloudy
7:53 AM 75.0 °F - 66.0 °F 73% 30.10 in 10.0 mi NE 5.8 mph - N/A   Mostly Cloudy
8:53 AM 77.0 °F - 66.0 °F 69% 30.11 in 10.0 mi NE 12.7 mph - N/A   Scattered Clouds
9:53 AM 78.1 °F - 66.0 °F 66% 30.12 in 10.0 mi NE 13.8 mph - N/A   Mostly Cloudy
10:53 AM 79.0 °F - 64.9 °F 62% 30.12 in 10.0 mi NE 10.4 mph - N/A   Mostly Cloudy
11:53 AM 79.0 °F - 66.0 °F 64% 30.10 in 10.0 mi ENE 15.0 mph 20.7 mph N/A   Mostly Cloudy
12:53 PM 81.0 °F 82.7 °F 64.9 °F 58% 30.09 in 10.0 mi ENE 12.7 mph 20.7 mph N/A   Mostly Cloudy
1:53 PM 82.0 °F 83.1 °F 63.0 °F 52% 30.07 in 10.0 mi NE 10.4 mph 18.4 mph N/A   Mostly Cloudy
2:53 PM 82.0 °F 83.0 °F 62.1 °F 51% 30.05 in 10.0 mi ENE 11.5 mph - N/A   Mostly Cloudy
3:53 PM 81.0 °F 81.9 °F 62.1 °F 52% 30.04 in 10.0 mi NNE 9.2 mph - N/A   Scattered Clouds
4:53 PM 79.0 °F - 63.0 °F 58% 30.03 in 10.0 mi NE 10.4 mph - N/A   Scattered Clouds
5:53 PM 80.1 °F 81.7 °F 64.0 °F 58% 30.03 in 10.0 mi NNE 9.2 mph - N/A   Scattered Clouds
6:53 PM 78.1 °F - 64.0 °F 62% 30.04 in 10.0 mi NE 10.4 mph - N/A   Scattered Clouds
7:53 PM 77.0 °F - 64.0 °F 64% 30.06 in 10.0 mi NE 6.9 mph - N/A   Scattered Clouds
8:53 PM 75.9 °F - 63.0 °F 64% 30.07 in 10.0 mi NE 9.2 mph - N/A   Partly Cloudy
9:53 PM 75.9 °F - 63.0 °F 64% 30.07 in 10.0 mi ENE 6.9 mph - N/A   Partly Cloudy
10:53 PM 75.9 °F - 64.0 °F 67% 30.06 in 10.0 mi East 9.2 mph - N/A   Scattered Clouds
11:53 PM 75.9 °F - 64.0 °F 67% 30.06 in 10.0 mi East 8.1 mph - N/A   Scattered Clouds